Helicity
75 102 83 78 94 138 92 148 169 35 44 140 137 190 173 166 184 180 221 225 213 214 174 161 122 117 125 110 100 105 98 92 81 66 76 138 154 132
25 41 50 41 50 61 71 88 86 61 73 83 92 79 63 79 94 77 108 109 142 196 165 158 142 116 125 165 163 125 86 87 100 97 84 109 107 159
54 54 64 60 37 50 43 59 68 85 94 72 53 37 54 72 69 88 70 75 46 207 236 227 152 185 189 206 199 188 167 126 127 139 122 99 104 159
85 73 67 76 85 84 73 72 68 65 47 55 50 61 59 78 94 72 94 76 92 147 220 202 226 183 229 250 246 234 244 227 194 128 110 113 108 130
49 54 60 70 79 71 71 83 77 73 60 36 18 23 30 20 34 28 46 54 114 177 174 254 265 248 233 191 224 229 252 277 300 273 180 89 98 128
63 62 53 51 52 49 32 42 50 50 35 20 16 26 21 34 6 -9 62 49 133 123 141 188 189 227 222 222 183 147 184 227 288 344 325 280 121 108
52 63 72 81 85 69 53 36 40 36 26 23 20 14 22 35 35 30 16 32 102 14 99 149 170 144 164 197 228 290 271 229 226 261 321 342 305 166
76 75 70 67 80 106 90 84 34 29 25 22 16 11 22 19 8 5 -7 -14 -13 52 39 166 83 165 147 166 244 296 268 204 171 185 225 292 285 205
69 68 73 74 75 74 81 94 78 60 25 26 19 18 5 4 5 21 14 -18 1 91 -9 14 26 77 129 228 261 245 211 250 274 229 180 218 251 260
77 73 76 75 73 73 72 70 68 59 53 52 36 30 40 37 16 5 -0 -15 3 30 -24 -102 -17 8 107 187 199 194 245 254 222 221 130 168 218 213
80 79 76 68 53 58 71 65 60 58 74 71 64 74 63 58 57 45 23 -4 -45 -29 -28 -89 -54 -45 -2 103 73 189 220 224 213 242 199 187 202 198
90 76 47 45 35 46 73 85 81 86 98 100 99 91 82 75 69 52 16 -11 -34 -64 -14 -44 -19 -84 -180 -22 95 113 128 168 198 214 212 158 209 101
88 66 72 34 37 55 69 98 97 88 88 96 87 74 74 72 74 75 58 47 8 -24 3 -25 -57 13 -61 -84 -17 120 140 139 155 160 160 196 273 264
61 67 77 36 49 70 90 86 78 77 91 62 55 58 68 71 82 91 93 77 49 9 4 10 -18 -23 -17 -2 -34 59 126 163 124 190 147 143 223 278
67 58 40 60 68 92 75 60 73 113 98 78 71 69 77 68 75 90 100 96 85 65 29 22 23 -0 -22 -36 3 44 62 138 176 139 134 161 176 186
68 88 85 85 69 70 81 84 99 104 106 95 76 72 73 74 75 81 81 76 88 63 33 19 24 5 -0 -12 -38 24 75 69 165 203 185 199 183 168
57 111 110 84 89 105 106 102 99 102 98 101 91 74 67 73 72 83 89 85 78 63 55 48 37 26 12 -8 -5 -4 62 67 111 149 157 194 203 171
97 108 95 97 102 103 104 97 97 85 106 108 112 116 104 94 79 73 78 72 71 76 65 61 35 33 16 -8 -51 27 36 56 80 95 90 153 216 183
106 108 114 107 109 123 129 122 114 119 118 134 140 145 148 129 85 94 89 79 79 83 75 63 51 38 15 22 21 4 16 44 49 75 95 102 174 215
106 117 115 111 129 141 138 124 104 95 101 111 126 140 164 161 136 120 116 100 98 90 81 93 116 92 34 23 23 11 27 37 58 66 70 69 93 140
104 117 113 112 126 129 121 120 116 107 92 117 154 164 173 183 169 147 130 71 66 90 85 102 123 60 78 35 13 23 61 55 57 64 36 27 89 113
100 100 89 100 114 105 113 128 134 133 139 161 172 169 164 180 174 161 152 129 103 97 107 93 61 76 57 31 7 20 37 46 46 27 15 -13 46 89
92 90 80 87 84 103 130 138 148 163 175 188 209 203 180 166 164 158 134 123 113 96 79 57 33 31 62 47 -2 12 15 34 39 11 -4 8 5 12
Wind_Speed
49 48 48 50 52 55 56 61 62 61 48 47 49 47 51 55 59 61 64 64 64 65 68 69 71 75 77 81 85 84 90 88 87 90 80 69 66 57
50 49 49 52 55 54 52 53 54 60 62 50 50 55 59 60 63 66 67 67 68 70 73 74 76 75 76 78 80 82 89 92 92 89 81 71 71 60
52 53 53 55 55 53 52 53 56 59 62 63 65 66 66 71 70 70 67 69 71 75 79 78 75 76 77 76 77 78 83 87 83 81 82 80 73 65
56 55 56 56 54 54 52 51 54 56 61 69 68 69 69 69 73 72 72 71 76 76 79 73 74 78 78 75 72 72 74 77 84 87 90 87 80 74
53 55 57 58 57 56 53 54 55 57 58 64 68 66 66 68 72 70 71 72 72 76 68 73 79 81 81 79 79 77 77 77 78 83 91 93 87 79
52 52 53 54 55 56 56 57 56 58 59 62 65 68 66 68 67 73 77 74 78 69 67 73 75 77 76 79 79 80 82 82 82 82 85 88 90 83
51 53 52 52 52 56 58 57 57 60 62 65 67 67 71 72 74 71 75 76 73 60 73 75 77 74 73 76 76 81 87 88 87 85 87 85 87 90
50 53 56 55 55 57 64 63 59 63 68 68 69 73 73 73 70 72 73 76 75 60 78 79 74 77 74 73 80 86 87 86 86 84 86 90 86 82
51 51 56 56 56 55 54 60 65 67 67 69 75 76 77 75 74 74 75 75 76 77 76 79 72 76 75 81 85 81 74 71 76 76 77 80 84 85
54 53 54 58 61 61 61 62 63 65 67 69 73 76 74 73 72 71 74 77 77 77 72 77 73 80 82 80 76 68 74 76 80 79 79 81 81 79
53 52 53 61 65 64 64 65 67 66 64 66 70 73 75 74 73 73 81 82 85 80 71 72 77 86 79 76 69 70 77 83 81 82 83 85 87 85
52 47 52 60 64 64 65 66 68 69 71 71 68 70 73 71 72 72 75 82 84 85 69 82 85 79 82 68 70 83 81 79 80 82 82 82 79 77
50 49 51 58 62 63 65 66 68 70 71 71 71 73 75 76 77 75 71 73 80 84 80 82 84 85 80 90 82 82 81 81 82 79 79 80 79 72
48 47 51 55 59 62 64 67 71 71 67 70 70 70 70 70 70 67 61 68 74 82 83 81 85 88 92 97 96 85 85 84 79 82 79 73 74 70
45 48 56 60 61 61 63 62 62 61 62 65 67 67 65 67 66 64 64 68 72 78 84 84 84 88 88 94 97 96 91 80 84 72 71 80 77 75
44 50 51 56 59 60 59 58 55 55 56 60 67 68 68 68 70 68 71 74 79 83 77 77 81 83 90 90 92 96 90 86 82 84 83 81 75 75
49 49 54 59 60 59 58 57 56 58 60 62 66 70 70 69 68 65 67 70 74 78 77 72 75 81 86 90 93 92 93 90 87 84 81 85 78 75
48 52 56 56 57 57 58 58 55 54 54 56 58 60 65 67 68 66 64 63 67 68 72 72 77 80 82 84 86 90 87 87 84 82 79 84 86 76
47 51 50 51 51 51 50 46 44 42 40 38 38 40 44 49 56 59 60 61 62 62 63 63 71 77 86 92 79 79 84 83 80 82 82 82 87 83
45 45 45 44 41 39 34 28 25 25 25 26 25 26 28 32 45 48 50 54 56 58 58 52 61 68 76 84 86 82 79 82 82 84 83 83 81 85
43 42 39 34 32 28 21 20 21 23 24 27 29 31 30 30 32 33 35 37 40 47 50 49 43 45 64 73 79 81 75 76 82 86 82 83 85 84
40 40 32 27 25 17 21 26 27 27 28 30 30 30 27 24 22 20 20 23 23 24 22 15 13 18 59 67 75 77 77 76 77 85 90 89 85 83
39 37 28 22 16 21 28 27 27 28 29 28 27 27 24 21 16 13 11 11 11 12 20 25 21 15 13 61 70 75 79 80 78 79 81 78 84 89
Wind_Direction
318 315 312 308 308 307 304 297 292 290 285 287 284 299 301 301 303 306 302 300 301 300 294 296 297 293 292 286 279 279 275 276 275 275 277 274 272 266
329 324 318 315 308 308 309 311 301 294 286 295 291 298 301 303 303 303 301 299 297 298 297 296 295 295 291 290 287 282 278 275 274 276 276 273 270 266
341 327 327 320 315 320 314 308 299 298 294 291 293 298 301 299 300 302 303 301 297 297 297 295 294 294 294 294 291 290 285 280 278 278 274 273 270 266
346 341 334 330 328 325 320 314 308 306 300 294 296 298 299 302 302 302 301 301 299 299 297 296 296 294 293 298 298 295 293 290 282 278 273 272 271 269
353 345 338 333 329 325 322 320 318 314 310 302 300 303 303 305 303 304 304 302 303 301 300 299 296 295 293 292 292 291 292 292 291 284 275 272 270 270
356 352 346 340 333 327 322 319 317 315 313 308 305 303 306 308 308 305 302 304 302 302 303 304 301 298 295 293 291 289 288 288 287 285 282 278 270 269
357 352 348 346 342 329 322 317 315 312 311 309 307 306 306 307 306 307 303 305 305 305 304 305 302 299 299 296 292 290 286 284 284 284 283 283 278 271
355 349 343 343 340 336 320 316 313 309 306 306 306 304 304 304 305 304 305 304 302 307 305 302 303 299 298 298 295 291 289 285 283 284 285 280 280 278
350 348 341 339 338 336 335 325 315 309 307 306 303 302 302 303 304 303 303 302 301 304 304 299 303 299 301 299 293 291 291 291 289 286 287 286 280 274
347 346 342 337 333 332 329 327 323 317 311 307 304 303 304 305 304 302 302 301 301 302 306 298 302 299 300 298 296 294 294 291 288 285 285 285 285 280
346 346 343 336 331 330 328 326 323 321 319 315 310 307 305 304 304 303 300 299 297 300 306 298 299 299 300 296 295 296 294 292 288 287 284 282 281 279
346 348 344 338 333 331 329 328 324 322 318 316 315 312 309 308 306 302 299 297 297 296 302 298 298 300 295 296 295 295 294 292 290 286 281 278 279 280
347 348 345 340 336 334 331 329 326 324 322 319 316 313 311 309 306 302 299 297 295 292 298 297 294 294 291 287 291 293 292 290 290 287 282 276 277 278
347 347 344 342 339 336 334 331 327 325 325 322 319 318 317 316 314 313 308 302 297 294 297 296 291 289 288 286 282 288 290 289 287 284 278 278 273 274
349 345 342 340 340 339 336 335 333 331 329 324 321 319 319 318 318 318 314 311 306 301 297 294 289 288 285 283 283 281 283 286 285 280 281 275 273 268
348 345 344 343 342 341 341 341 340 337 332 327 322 320 320 319 317 317 315 313 310 306 303 297 291 286 284 283 281 280 279 277 282 281 278 275 274 267
347 347 345 344 343 343 343 341 340 337 333 329 324 320 320 320 320 320 318 316 313 312 309 304 296 290 283 282 280 278 276 275 275 278 276 271 271 269
348 346 345 346 345 345 343 341 341 340 339 336 332 329 326 324 322 321 319 318 315 316 313 308 301 295 289 284 277 276 276 274 275 275 274 269 267 268
348 348 349 349 350 351 351 351 348 349 349 347 343 341 339 336 331 327 323 319 318 318 318 317 306 293 285 280 283 280 274 275 274 273 271 269 265 266
351 352 352 354 357 358 358 354 350 348 347 343 339 336 337 338 337 332 328 325 323 322 321 322 312 300 290 283 281 282 280 276 275 271 270 270 269 267
353 355 357 359 358 355 345 341 340 338 339 340 338 339 339 340 339 337 335 331 330 329 326 325 324 321 304 294 284 280 281 279 275 272 270 268 266 264
356 357 2 2 357 342 345 350 347 343 342 341 339 338 337 338 337 340 342 342 342 340 333 322 327 338 309 293 284 283 283 285 282 275 269 264 263 260
357 360 4 0 342 349 354 352 349 345 344 341 339 338 335 330 326 317 314 320 311 270 250 249 242 236 235 293 284 286 286 286 284 280 274 271 265 260